Retour au catalogue

DELTA 1 DEB

ActifLEO
NORAD 10746·DEBRIS·🇺🇸 United States

Lancé Jul 29, 1976 depuis Vandenberg Space Force Base

Loading…

Prochains Passages (prochaines 24 heures)

TLE

FraisSource: Space-Track

Époque: Sep 14, 2026, 04:08 UTC

1 10746U 76077AT  26257.17248762  .00000781  00000-0  16488-2 0  9999
2 10746 101.8918 133.9044 0270512 114.6812  35.1390 13.22483776364885

Suivez DELTA 1 DEB en temps réel avec AllMySat

Download on the App Store